STARLINK-32564, 61924

Orbit data source: Space-Track

STARLINK-32564, 61924 is a payload satellite owned by SpaceX/Seattle (US) in LEO that was launched on Mon, 11 Nov 2024 UTC via an FALCON 9 launch vehicle from the Air Force Eastern Test Range (AFETR). Payloads include a variety of satellites, spacecraft, and rockets equipped with specific instruments for various scientific and technological missions. These include communications satellites like Starlink; space stations such as the ISS; scientific satellites like the Hubble; Earth observation satellites from companies like Planet Labs, Umbra, and HawkEye 360; GPS; miniature CubeSats for education and research; and military/defense satellites.

Loading next visibility...
STARLINK-32564 details
Identifier
61924, 2024-207N
Orbit
LEO
Last TLE update9 hours ago
Origin
Flag of USSpaceX/Seattle (US)
ManufacturerSpaceX/Seattle
MissionOperational spacecraft
Bus & MotorSTARLINK V2M, Unknown motor
Mass730 kg wet, ~700 kg dry
Launch date (UTC)
2024-11-11 (1 week ago)
Launch vehicle
FALCON 9
Launch site
Air Force Eastern Test Range (AFETR)
Object type
Payload
Rocket body
Debris
Shape & HBRUnknown
Radar Cross SectionRCS unknown

Expand to show TLE details & history

TLE from 9 hours ago
0 STARLINK-32564
1 61924U 24207N   24325.91668981 -.00715443  00000-0 -23740-2 0  9995
2 61924  43.0023  94.4620 0001778 289.1932 239.2466 15.90907115  2651
Epoch: 2024-11-20T22:00Z
Definitive object data (Epoch: 2024-11-20T22:00:01.999Z)
Latitude7.85695°
Longitude-124.41307°
Altitude299.44 km
Speed7.73 km/s
True Right ascension17h 44m 00s
True Declination7° 48' 26"
Sunlit
Object was in daylight at TLE epoch
Visualization TLE readout
Latitude40.63408°
Longitude175.57375°
Altitude305.188 km
Speed7.73 km/s
Apparent Right ascension14h 45m 46s
Apparent Declination1° 32' 54"
Sunlit
Object is in daylight
Visualization observer readout
Local Sidereal Time03:49:55
Azimuth23.433° NE
Elevation-46.015°
Doppler factor1
Orbital elements
Apogee altitude302.929 km
Perigee altitude300.554 km
Semi-major axis6,679.878 km
Eccentricity0.0001778
Inclination43.0023°
RAAN94.462°
Arg. of periapsis289.1932°
True anomaly239.22909°
Mean anomaly239.2466°
Eccentric anomaly239.23785°
Mean motion3.97549 °/min
BSTAR-0.002374
Orbital period90.55 mins
Loading maneuver chart data...
Loading historical data...
Loading historical data...
Loading historical data...
Loading historical data...
Loading historical data...
Loading historical data...
Loading historical data...

STARLINK-32564 Visibility forecast

Observer location: undefined°, undefined

Span
Click to sort rows by Start time (UTC) header in descending order
Start Az.
Max El. time (UTC)
Max El. Az.
Max El.
End time (UTC)
End Az.
4 mins2024-11-21 12:36:19.582Z225.254° WSW2024-11-21 12:38:19.582Z128.765° SE34.629°2024-11-21 12:40:19.582Z80.873° E
|